Vorticity
17 5 3 12 3 9 10 14 -2 13 -5 -10 11 -10 2 6 14 6 -7 -5 -1 18
-1 4 12 11 12 16 9 4 12 4 14 13 4 -21 -1 -9 23 -12 11 1 -1 24
17 22 23 25 24 17 15 16 8 7 10 0 15 -1 0 22 18 -1 18 9 10 17
18 17 17 21 25 31 34 32 27 13 6 8 -2 18 -5 9 28 25 11 -6 16 3
6 5 4 5 6 6 7 10 19 27 28 21 14 -1 11 17 11 3 11 9 9 18
6 6 5 6 5 5 6 7 8 9 13 18 20 19 15 12 -1 -5 4 -11 9 4
6 6 5 5 5 6 5 5 8 8 9 8 13 12 14 11 18 10 13 9 6 11
5 8 6 8 9 9 8 9 9 10 10 10 11 11 13 10 10 11 9 9 14 8
9 11 11 11 10 10 10 10 9 9 9 11 11 9 10 8 9 10 6 6 9 13
11 12 12 11 11 11 11 11 11 10 8 8 9 9 10 11 12 12 13 12 12 12
8 9 9 9 10 12 13 14 14 13 14 14 14 14 12 11 11 12 11 13 14 14
10 11 10 11 11 12 13 12 13 13 13 12 11 13 14 13 13 14 15 14 13 13
11 11 12 11 11 9 10 11 12 13 14 14 14 12 11 12 12 13 12 11 12 11
8 8 8 8 9 9 9 10 11 11 12 13 13 13 14 12 11 11 11 11 11 11
Height
2991 2994 2997 3001 3006 3010 3016 3020 3025 3029 3032 3035 3040 3043 3045 3049 3053 3056 3059 3061 3063 3064
2984 2986 2988 2992 2997 3002 3007 3011 3015 3019 3024 3029 3030 3033 3037 3041 3046 3047 3048 3052 3055 3057
2976 2978 2980 2983 2988 2993 2997 3002 3007 3011 3015 3020 3020 3026 3030 3033 3036 3039 3042 3044 3047 3049
2969 2972 2974 2978 2981 2985 2989 2993 2998 3003 3007 3011 3015 3017 3020 3024 3026 3029 3032 3034 3036 3039
2965 2968 2971 2974 2977 2980 2984 2987 2990 2993 2997 3002 3006 3010 3011 3014 3019 3020 3024 3025 3026 3029
2960 2963 2966 2970 2973 2976 2979 2982 2985 2987 2990 2994 2997 3000 3004 3007 3010 3011 3012 3015 3016 3018
2957 2960 2962 2965 2968 2971 2974 2977 2979 2981 2983 2986 2988 2991 2995 2998 3000 3002 3003 3004 3006 3008
2951 2955 2958 2960 2963 2965 2968 2971 2972 2974 2976 2978 2980 2983 2986 2988 2990 2992 2994 2995 2997 2999
2947 2950 2953 2956 2958 2960 2962 2965 2966 2968 2970 2972 2974 2975 2977 2979 2981 2984 2985 2986 2988 2990
2941 2944 2946 2949 2951 2953 2956 2959 2961 2962 2964 2966 2967 2969 2970 2972 2974 2976 2977 2979 2980 2982
2935 2937 2940 2942 2944 2948 2950 2953 2954 2955 2958 2960 2961 2962 2963 2965 2966 2968 2970 2971 2973 2974
2931 2933 2935 2937 2938 2940 2943 2945 2947 2948 2950 2952 2953 2955 2956 2957 2958 2961 2963 2964 2965 2967
2928 2930 2931 2932 2933 2934 2937 2939 2941 2942 2943 2945 2948 2949 2950 2951 2952 2955 2957 2958 2960 2961
2924 2925 2925 2926 2929 2931 2933 2934 2936 2937 2937 2939 2942 2943 2944 2945 2947 2947 2950 2952 2953 2955